Location: Unspecified
(58.9933°N, 5.6375°E)
Time: 13:59:53
(UTC+02:00)

Okean 3 - Visible Passes

Search period start: 25 July 2016 00:00
Search period end: 04 August 2016 00:00
Orbit: 579 x 602 km, 82.5° (Epoch: 25 July)

Date Brightness Start Highest point End Pass type
(mag) Time Alt. Az. Time Alt. Az. Time Alt. Az.
25 Jul 5.0 23:14:31 10° NNW 23:18:26 34° W 23:22:17 10° SSW visible
26 Jul 5.5 23:23:13 10° NNW 23:26:48 26° W 23:30:20 10° SW visible
27 Jul 5.9 23:32:01 10° NW 23:35:07 20° W 23:38:12 10° SW visible
28 Jul 6.2 23:40:58 10° NW 23:43:25 15° W 23:45:51 10° WSW visible
29 Jul 6.4 23:50:21 10° WNW 23:51:41 11° WNW 23:53:00 10° W visible
03 Aug 6.3 22:54:40 10° NW 22:57:05 15° W 22:59:30 10° WSW visible
